Regional Weather Roundup
Issued by NWS

Home | Current Version | Previous Version | Graphics & Text | Print | Product List | Glossary On
Versions: 1 2 3 4 5 6 7 8 9 10 11 12 13 14 15 16 17 18 19 20 21 22 23 24 25 26 27 28 29 30 31 32 33 34 35 36 37 38 39 40 41 42 43 44 45 46 47 48 49 50
000
ASUS43 KLOT 200006
RWRIL

ILLINOIS REGIONAL WEATHER ROUNDUP
NATIONAL WEATHER SERVICE CHICAGO/ROMEOVILLE IL
700 PM CDT TUE AUG 19 2014

NOTE: "FAIR" INDICATES FEW OR NO CLOUDS BELOW 12,000 FEET WITH NO
SIGNIFICANT WEATHER AND/OR OBSTRUCTIONS TO VISIBILITY.

* THESE STATIONS ARE NOT UNDER NWS QUALITY CONTROL. THEY ALSO MAY NOT
  REPORT WEATHER SUCH AS PRECIPITATION OR FOG.

ILZ001-002-007-009-015-016-024-200100-
NORTHWEST ILLINOIS

CITY           SKY/WX    TMP DP  RH WIND       PRES   REMARKS
MOLINE         CLEAR     83  63  50 W8        29.75R HX  84
6HR MIN TEMP:  82; 6HR MAX TEMP:  89;

STERLING*      PTCLDY    81  66  61 NW7       29.75R HX  83
SAVANNA*       MOCLDY    81  62  51 W6        29.75R HX  82
$$

ILZ003-004-008-010-011-017-018-200100-
NORTH CENTRAL ILLINOIS

CITY           SKY/WX    TMP DP  RH WIND       PRES   REMARKS
ROCKFORD       PTCLDY    81  62  52 NW12      29.75R HX  82
6HR MIN TEMP:  81; 6HR MAX TEMP:  86;

FREEPORT*      CLEAR     78  65  64 NW8       29.77S HX  80
ROCHELLE*      CLEAR     80  63  55 W9        29.75R HX  82
DE KALB*       PTCLDY    78  64  63 W9        29.75S HX  80
PERU*          PTCLDY    82  65  57 W8        29.75S HX  83
$$

ILZ005-006-012>014-019>023-200100-
NORTHEAST ILLINOIS

CITY           SKY/WX    TMP DP  RH WIND       PRES   REMARKS
CHICAGO-OHARE  MOCLDY    82  62  50 NW14      29.71S HX  83
6HR MIN TEMP:  80; 6HR MAX TEMP:  86;

CHICAGO-MIDWAY PTCLDY    83  66  56 SW10      29.71S HX  85
6HR MIN TEMP:  75; 6HR MAX TEMP:  86; 6HR PCP:  0.01;

AURORA         CLEAR     80  66  62 W7        29.73S HX  82
6HR MIN TEMP:  78; 6HR MAX TEMP:  85;

LANSING*       CLEAR     78  68  71 W9        29.74S HX  80
JOLIET*        PTCLDY    80  67  64 CALM      29.74S HX  82
WAUKEGAN       CLEAR     80  64  58 VRB3      29.70S HX  82
6HR MIN TEMP:  73; 6HR MAX TEMP:  83; 6HR PCP:  0.11;

DUPAGE AIRPORT CLEAR     82  65  56 W9        29.72S HX  84
6HR MIN TEMP:  79; 6HR MAX TEMP:  86;

KANKAKEE*      PTCLDY    79  69  73 W6        29.76R HX  81
WHEELING       MOCLDY    82  65  56 W8        29.72S HX  84
6HR MIN TEMP:  78; 6HR MAX TEMP:  87; 6HR PCP:  0.01;

MORRIS*        PTCLDY    82  70  67 W5        29.73S HX  86
ROMEOVILLE*    PTCLDY    79  67  66 SW5       29.73S HX  81
NORTHERLY ISL    N/A     81  63  54 SW13        N/A  HX  82
$$

LMZ740>746-200100-
SOUTHERN LAKE MICHIGAN

STATION/POSITION SKY/WX   TEMP    WIND        PRES    VSBY  WAVE
                          AIR SEA DIR/SP/G                  HT/PER
                          (F)     (DEG/KT/KT) (MB)    (MI)  (FT/S)
SOUTHERN BUOY              69 67  150/  4/  6 1006.0F         2/ 5
WAUKEGAN HARBOR            83     290/  8/ 16   N/A
HARRISON CRIB              81     220/ 15/ 18   N/A
BURNHAM HARBOR             81     250/  4/ 12   N/A
CALUMET HARBOR             80     200/  7/ 13 1005.2S
BURNS HARBOR               78     220/ 14/ 19   N/A
MICHIGAN CITY              77     180/ 11/ 14   N/A
MICHIGAN CITY 6N           76 70  200/ 12/ 16   N/A           2/ 3
ST. JOSEPH                 73 70  180/  8/ 12   N/A           2/ 4
$$

ILZ025>027-034>036-040-047-049-050-058-095>099-200100-
WEST-CENTRAL ILLINOIS

CITY           SKY/WX    TMP DP  RH WIND       PRES   REMARKS
QUINCY         CLEAR     81  72  74 SW5       29.78S HX  85
GALESBURG*     CLEAR     82  68  62 W5        29.77S HX  85
MACOMB*        CLEAR     79  72  79 SW6       29.79F HX  82
JACKSONVILLE*  CLEAR     82  73  74 W3        29.79F HX  88
PITTSFIELD*    CLEAR     83  72  70 SW5       29.80S HX  88
$$

ILZ028>032-037-038-041>044-048-051>054-059>061-200100-
CENTRAL ILLINOIS

CITY           SKY/WX    TMP DP  RH WIND       PRES   REMARKS
PONTIAC        CLEAR     81  72  74 SW5       29.75S HX  84
DECATUR        CLEAR     82  70  66 W10       29.78F HX  86
PEORIA         CLEAR     82  69  64 SW8       29.77S HX  85
6HR MIN TEMP:  77; 6HR MAX TEMP:  86;

LACON*         PTCLDY    81  68  65 SW6       29.75S HX  84
LINCOLN*       CLEAR     82  67  60 SW3       29.74F HX  85
SPRINGFIELD    CLEAR     83  72  69 W5        29.78F HX  88
6HR MIN TEMP:  79; 6HR MAX TEMP:  85;

TAYLORVILLE    CLEAR     79  70  73 W6        29.79S HX  81
$$

ILZ033-039-045-046-055>057-062-063-200100-
EAST-CENTRAL ILLINOIS

CITY           SKY/WX    TMP DP  RH WIND       PRES   REMARKS
CHAMPAIGN      CLEAR     79  70  74 W8        29.78F HX  82
DANVILLE*      LGT RAIN  79  71  75 W13       29.75R HX  82
RANTOUL*       CLEAR     81  68  65 SW10      29.78S HX  84
MATTOON        MOCLDY    82  73  74 W3        29.77F HX  87
PARIS*         MOCLDY    81  75  82 SW3       29.79S HX  87
$$

ILZ079-100>102-200100-
SOUTHWEST ILLINOIS

CITY           SKY/WX    TMP DP  RH WIND       PRES   REMARKS
ALTON          CLEAR     81  77  89 W7        29.80S HX  88
BELLEVILLE     CLEAR     86  76  71 S2        29.78S HX  95
CAHOKIA*       CLEAR     88  68  51 W5        29.78S HX  91
SPARTA*        PTCLDY    81  72  73 SW6       29.81R HX  85
$$

ILZ064>066-069>071-074>076-080>082-084>086-088>090-092>094-200100-
SOUTH-CENTRAL ILLINOIS

CITY           SKY/WX    TMP DP  RH WIND       PRES   REMARKS
CARBONDALE     MOCLDY    80  70  71 SW3       29.81R HX  83
6HR MIN TEMP:  78; 6HR MAX TEMP:  86; 6HR PCP:  0.01;

CAIRO*         MOCLDY    78  71  78 W7        29.83R HX  80
MARION         CLOUDY    79  70  73 S6        29.82S HX  81
MT. VERNON     MOCLDY    82  73  74 SW10      29.80S HX  88
CENTRALIA*     PTCLDY    85  72  65 SW6       29.80R HX  90
SALEM*         PTCLDY    85  77  78 SW6       29.80R HX  95
$$

ILZ067-068-072-073-078-083-087-091-200100-
SOUTHEAST ILLINOIS

CITY           SKY/WX    TMP DP  RH WIND       PRES   REMARKS
LAWRENCEVILLE  CLOUDY    83  76  79 SW6       29.79F HX  91
FLORA*         CLOUDY    82  73  75 SW6       29.80R HX  87
FAIRFIELD*     MOCLDY    84  79  84 MISG      29.79S HX  96
HARRISBURG*    CLOUDY    78  70  74 SW6       29.82R HX  81
ROBINSON*      MOCLDY    83  76  78 SW6       29.79S HX  92
CARMI*         MOCLDY    82  79  89 CALM      29.80R HX  93
$$

ABBREVIATIONS USED IN REMARKS
   TC - TEMPERATURE IN CELSIUS
  WCI - WIND CHILL INDEX
   HX - HEAT INDEX
  VSB - VISIBILITY
$$



USA.gov is the U.S. government's official web portal to all federal, state and local government web resources and services.